Home   Weather   Abilene   Past weeks
Flag for USA

Past Weather in Abilene, Texas, USA — Yesterday and Last 2 Weeks

Now
83 °F

Clear.


Feels Like: 86 °F
Forecast: 99 / 76 °F
Wind: 17 mph from South

Location: Abilene Regional Airport

Current Time: Jul 19, 2019 at 3:18:52 am

Latest Report: Jul 19, 2019 at 1:52 am


Visibility: 10 mi

Pressure: 29.84 "Hg (28.12 "Hg at 524m altitude)

Humidity: 61%

Dew Point: 68 °F

Location of AbileneLocation

Past Weather in Abilene — Graph

°F

Abilene Temperature Yesterday

Maximum temperature yesterday: 98 °F (at 3:52 pm)
Minimum temperature yesterday: 76 °F (at 6:52 am)
Average temperature yesterday: 87 °F

High & Low Weather Summary for the Past Weeks

 TemperatureHumidityPressure
High102 °F (Jul 9, 4:52 pm)96% (Jul 15, 6:52 am)30.16 "Hg (Jul 15, 6:52 am)
Low69 °F (Jul 13, 2:52 am)17% (Jul 7, 10:52 pm)29.77 "Hg (Jul 18, 6:52 pm)
Average84 °F65%29.90 "Hg
* Reported Jul 4 1:52 am — Jul 19 1:52 am, Abilene. Weather by CustomWeather, © 2019

Note: Actual official high and low records may vary slightly from our data, if they occured in-between our weather recording intervals... More about our weather records

Advertising

Abilene Weather History for the Previous 24 Hours

Scroll right to see more
 ConditionsComfort  
Time TempWeatherWind HumidityBarometerVisibility
1:52 am
Fri, Jul 19
83 °FClear.17 mph61%29.84 "Hg10 mi
12:52 am85 °FClear.17 mph57%29.83 "Hg10 mi
11:52 pm
Thu, Jul 18
86 °FClear.16 mph51%29.82 "Hg10 mi
10:52 pm87 °FClear.16 mph48%29.81 "Hg10 mi
9:52 pm87 °FClear.12 mph48%29.79 "Hg10 mi
8:52 pm90 °FClear.12 mph43%29.78 "Hg10 mi
7:52 pm94 °FSunny.17 mph41%29.77 "Hg10 mi
6:52 pm96 °FSunny.16 mph38%29.77 "Hg10 mi
5:52 pm98 °FSunny.20 mph39%29.77 "Hg10 mi
4:52 pm97 °FSunny.15 mph42%29.79 "Hg10 mi
3:52 pm98 °FSunny.14 mph40%29.82 "Hg10 mi
2:52 pm96 °FSunny.18 mph46%29.84 "Hg10 mi
1:52 pm94 °FSunny.17 mph49%29.86 "Hg10 mi
12:52 pm92 °FSunny.22 mph54%29.88 "Hg10 mi
11:52 am89 °FSunny.18 mph57%29.90 "Hg10 mi
10:52 am86 °FSunny.21 mph63%29.90 "Hg10 mi
9:52 am83 °FSunny.17 mph68%29.90 "Hg10 mi
8:52 am80 °FSunny.21 mph74%29.90 "Hg10 mi
7:52 am78 °FSunny.15 mph79%29.91 "Hg10 mi
6:52 am76 °FSunny.13 mph85%29.90 "Hg10 mi
5:52 am78 °FClear.17 mph76%29.89 "Hg10 mi
4:52 am78 °FClear.13 mph76%29.89 "Hg10 mi
3:52 am79 °FClear.16 mph74%29.88 "Hg10 mi
Weather by CustomWeather, © 2019

See weather overview